Santorini Island, Greece

6:39 PM EEST on May 28, 2017 (GMT +0300)
Santorini

Weather History for LGSR - March, 2014

Change the Weather History Date:

Wednesday, March 5, 2014

  Actual Average Record
Temperature  
Mean Temperature 56 °F -  
Max Temperature 60 °F 59 °F 68 °F (2001)
Min Temperature 53 °F 50 °F 44 °F (2012)
Degree Days  
Heating Degree Days 8    
Growing Degree Days 6 (Base 50)    
Moisture  
Dew Point 48 °F    
Average Humidity 75    
Maximum Humidity 94    
Minimum Humidity 52    
Precipitation  
Precipitation 0.00 in - - ()
Sea Level Pressure  
Sea Level Pressure 29.74 in    
Wind  
Wind Speed 11 mph ()    
Max Wind Speed 23 mph    
Max Gust Speed 32 mph    
Visibility 6.2 miles    
Events Rain    
Averages and records for this station are not official NWS values.
T = Trace of Precipitation, MM = Missing Value Source: Averaged Metar Reports

Daily Weather History Graph

Daily Weather History Graph

Search for Another Location

Airport or City:

Trip Planner

Search our weather history database for the weather conditions in past years. The results will help you decide how hot, cold, wet, or windy it might be!

Date:

Astronomy

Mar. 05, 2014 Rise Set
Actual Time 6:43 AM EET 6:16 PM EET
Civil Twilight 6:17 AM EET 6:42 PM EET
Nautical Twilight 5:47 AM EET 7:11 PM EET
Astronomical Twilight 5:18 AM EET 7:41 PM EET
Moon 9:04 AM EET (3/5) 10:56 PM EET (3/5)
Length of Visible Light 12h 24m
Length of Day
11h 32m
Waxing Crescent, 20% of the Moon is Illuminated
Mar 5
Waxing Crescent
Mar 8
First Quarter
Mar 16
Full
Mar 24
Last Quarter
Mar 30
New

Hourly Weather History & Observations

Time (EET) Temp. Dew Point Humidity Pressure Visibility Wind Dir Wind Speed Gust Speed Precip Events Conditions
12:20 AM 55.4 °F 50.0 °F 82% 29.74 in - SSW 12.7 mph - N/A Rain Light Rain
12:50 AM 55.4 °F 50.0 °F 82% 29.74 in - SSE 9.2 mph - N/A Rain Light Rain
1:20 AM 55.4 °F 51.8 °F 88% 29.74 in - SSE 10.4 mph - N/A   Unknown
1:50 AM 55.4 °F 51.8 °F 88% 29.74 in - South 8.1 mph - N/A Rain Light Rain
2:20 AM 55.4 °F 51.8 °F 88% 29.77 in - South 8.1 mph - N/A Rain Light Rain
2:50 AM 55.4 °F 50.0 °F 82% 29.74 in - South 10.4 mph - N/A Rain Light Rain
3:20 AM 55.4 °F 50.0 °F 82% 29.71 in - SE 17.3 mph - N/A Rain Light Rain
3:50 AM 55.4 °F 51.8 °F 88% 29.71 in - SE 8.1 mph - N/A   Unknown
4:20 AM 53.6 °F 51.8 °F 94% 29.71 in - SSE 6.9 mph - N/A   Unknown
4:50 AM 55.4 °F 53.6 °F 94% 29.71 in - SSE 12.7 mph - N/A   Unknown
5:20 AM 55.4 °F 53.6 °F 94% 29.71 in - South 8.1 mph - N/A Rain Light Rain
5:50 AM 55.4 °F 51.8 °F 88% 29.68 in - SSE 12.7 mph - N/A Rain Light Rain
6:20 AM 57.2 °F 48.2 °F 72% 29.65 in - SE 18.4 mph 32.2 mph N/A Rain Light Rain
6:50 AM 55.4 °F 48.2 °F 77% 29.68 in 6.2 mi SSE 23.0 mph - N/A Rain Light Rain
7:50 AM 57.2 °F 48.2 °F 72% 29.68 in 6.2 mi South 18.4 mph 29.9 mph N/A   Overcast
8:50 AM 57.2 °F 48.2 °F 72% 29.65 in 6.2 mi SE 17.3 mph - N/A   Overcast
9:50 AM 57.2 °F 50.0 °F 77% 29.68 in 6.2 mi South 20.7 mph - N/A   Overcast
10:50 AM 57.2 °F 48.2 °F 72% 29.68 in 6.2 mi South 17.3 mph - N/A   Overcast
11:50 AM 55.4 °F 48.2 °F 77% 29.71 in 6.2 mi West 19.6 mph - N/A   Overcast
12:50 PM 55.4 °F 44.6 °F 67% 29.71 in 6.2 mi West 6.9 mph - N/A   Overcast
1:50 PM 57.2 °F 48.2 °F 72% 29.71 in 6.2 mi West 15.0 mph - N/A   Scattered Clouds
2:50 PM 60.8 °F 46.4 °F 59% 29.71 in 6.2 mi West 6.9 mph - N/A   Scattered Clouds
3:50 PM 60.8 °F 42.8 °F 52% 29.71 in 6.2 mi WSW 15.0 mph - N/A   Scattered Clouds
4:50 PM 59.0 °F 44.6 °F 59% 29.74 in 6.2 mi West 12.7 mph - N/A   Partly Cloudy
5:50 PM 57.2 °F 42.8 °F 59% 29.77 in 6.2 mi WSW 16.1 mph - N/A   Partly Cloudy
6:50 PM 57.2 °F 42.8 °F 59% 29.77 in 6.2 mi WSW 9.2 mph - N/A   Partly Cloudy
7:50 PM 55.4 °F 44.6 °F 67% 29.80 in 6.2 mi WSW 6.9 mph - N/A   Partly Cloudy
8:50 PM 55.4 °F 44.6 °F 67% 29.83 in 6.2 mi SW 6.9 mph - N/A   Partly Cloudy
9:20 PM 55.4 °F 46.4 °F 72% 29.83 in - SW 8.1 mph - N/A   Unknown
9:50 PM 53.6 °F 44.6 °F 72% 29.83 in - WSW 8.1 mph - N/A   Unknown
10:20 PM 55.4 °F 44.6 °F 67% 29.83 in - WSW 10.4 mph - N/A   Unknown
10:50 PM 55.4 °F 44.6 °F 67% 29.86 in - SW 5.8 mph - N/A   Unknown
11:20 PM 53.6 °F 44.6 °F 72% 29.86 in - WSW 5.8 mph - N/A   Unknown
11:50 PM 53.6 °F 44.6 °F 72% 29.86 in - SW 5.8 mph - N/A   Unknown